Zurück zum Katalog

COSMOS 2356

AktivNavigationPO
NORAD 25367·PAYLOAD·🇷🇺 Russia

Gestartet Jun 15, 1998 von Plesetsk Cosmodrome

Loading…

Nächste Überflüge (nächste 24 Stunden)

TLE

AktuellSource: Space-Track

Epoche: Sep 14, 2026, 08:20 UTC

1 25367U 98036E   26257.34750803 -.00000003  00000-0 -82716-4 0  9994
2 25367  82.5753 274.1433 0355948 344.4979  14.5407 12.22426830260530

Verfolge COSMOS 2356 in Echtzeit mit AllMySat

Download on the App Store